Regional Weather Roundup
Issued by NWS Wakefield, VA

Home | Current Version | Previous Version | Text Only | Print | Product List | Glossary Off
Versions: 1 2 3 4 5 6 7 8 9 10 11 12 13 14 15 16 17 18 19 20 21 22 23 24 25 26 27 28 29 30 31 32 33 34 35 36 37 38 39 40 41 42 43 44 45 46 47 48 49 50

000
ASUS41 KAKQ 191810
RWRAKQ

REGIONAL WEATHER ROUNDUP
NATIONAL WEATHER SERVICE WAKEFIELD VA
200 PM EDT FRI SEP 19 2014

Note: "fair" indicates few or no clouds below 12,000 feet with no
significant weather and/or obstructions to visibility. * = Denotes
station may not report precipitation (e.g., rain,snow,etc.),
thunder or fog.

VAZ042-051-052>054-056-191900-
NORTHERN VIRGINIA

CITY           SKY/WX    TMP DP  RH WIND       PRES   REMARKS
WASH NATIONAL  PTSUNNY   76  54  46 NE6       30.26F
DULLES         PTSUNNY   70  55  59 E7        30.26F
FORT BELVOIR   MOSUNNY   73  57  56 VRB5      30.26F
QUANTICO       PTSUNNY   74  58  57 N7        30.26F
FREDERICKSBRG* MOSUNNY   76  61  59 NE6       30.24F
STAFFORD*      PTSUNNY   74  59  59 CALM      30.29S
WARRENTON      CLOUDY    76  63  64 CALM      30.25S
CULPEPER*      MOSUNNY   73  57  56 CALM      30.26F
MANASSAS*      NOT AVBL
LEESBURG*      CLOUDY    72  57  60 CALM      30.28S
WINCHESTER     CLOUDY    70  52  52 E6        30.26S
FRONT ROYAL*   CLOUDY    70  55  60 E9        30.24F
LURAY*         MOCLDY    72  55  56 CALM      30.24F
$$

VAZ048-049-060>072-079>083-191900-
CENTRAL AND SOUTH CENTRAL VIRGINIA...AND NORTH CENTRAL NORTH CAROLINA

CITY           SKY/WX    TMP DP  RH WIND       PRES   REMARKS
RICHMOND       PTSUNNY   78  58  49 NE7       30.23F
CHESTERFIELD*  PTCLDY    75  54  46 SE8       30.25F
PETERSBURG*    CLOUDY    72  58  61 NE6       30.23F
HANOVER        MOSUNNY   75  57  53 E7        30.25F
TAPPAHANNOCK*  MOSUNNY   77  54  45 E7        30.25S
CHARLOTTSVILLE CLOUDY    68  57  68 VRB6      30.26F
ORANGE*        CLOUDY    70  59  68 CALM      30.27F
LOUISA*        MOSUNNY   72  61  68 CALM      30.24F
FARMVILLE*     CLOUDY    68  57  68 NE6       30.23F
CREWE*         CLOUDY    70  59  69 NE5       30.24S
FORT PICKETT*  CLOUDY    70  62  77 NE5       30.23F
LUNENBURG*     MOCLDY    73  60  63 SE5       30.23S
SOUTH HILL*    MOSUNNY   75  61  60 E3        30.27S
LAWRENCEVILLE* MOCLDY    73  63  72 NE5       30.22R
ROANOKE RAPIDS PTCLDY    77  59  53 NE13      30.20S
RALEIGH        MOSUNNY   79  57  46 E15       30.18F
$$

VAZ088>098-191900-
SOUTHEAST VIRGINIA

CITY           SKY/WX    TMP DP  RH WIND       PRES   REMARKS
NORFOLK        SUNNY     76  58  53 E12       30.22F
VIRGINIA BEACH MOSUNNY   76  57  51 E13G20    30.21F
NORFOLK NAVAL  MOSUNNY   78  56  46 E13       30.23F
WEST POINT*    CLOUDY    75  60  58 CALM      30.25S
NEWPORT NEWS   MOSUNNY   80  59  48 E12       30.23S
LANGLEY AFB    MOSUNNY   76  59  55 SE7       30.22F
FORT EUSTIS    MOSUNNY   78  51  40 E6        30.21F
WILLIAMSBURG*  MOSUNNY   81  61  50 CALM      30.23F
HR EXEC AP*    MOCLDY    79  57  47 E6        30.23F
FRANKLIN*      CLOUDY    73  61  64 NE6       30.22S
WAKEFIELD      CLOUDY    74  62  66 NE3       30.22F
$$

VAZ020-022-025-037-045-191900-
WEST CENTRAL AND SOUTHWEST VIRGINIA

CITY           SKY/WX    TMP DP  RH WIND       PRES   REMARKS
STAUNTON*      CLOUDY    64  55  72 SE3       30.29F
HOT SPRINGS VA RAIN      51  48  90 E6        30.32S VSB<1/4
LYNCHBURG      CLOUDY    63  60  90 NE7       30.27S
DANVILLE       CLOUDY    73  60  63 NE10      30.22S
SOUTH BOSTON*  NOT AVBL
MARTINSVILLE   CLOUDY    68  61  79 NE7       30.25S
ROANOKE        LGT RAIN  60  57  89 E7        30.28R FOG
BLACKSBURG     RAIN      63  63 100 E10       30.27S
DUBLIN*        CLOUDY    66  63  88 E7        30.24S
MARION*        PTSUNNY   71  60  67 SE9       30.23F
HILLSVILLE*    CLOUDY    65  59  81 S5        30.25S
RICHLANDS*     MOCLDY    74  60  59 SE3       30.19F
WISE*          PTSUNNY   75  55  50 S9        30.19F
ABINGDON*      PTSUNNY   80  58  46 S7        30.16F
$$

MDZ021>025-VAZ099-100-191900-
SOUTHERN MARYLAND AND THE DELMARVA PENINSULA

CITY           SKY/WX    TMP DP  RH WIND       PRES   REMARKS
PATUXENT RIVER MOSUNNY   75  57  53 E7        30.25F
BAY BRIDGE APT NOT AVBL
LEONARDTOWN    MOSUNNY   72  55  56 E7        30.26F
DOVER          SUNNY     73  59  60 E16G23    30.26S
GEORGETOWN     PTSUNNY   73  59  61 E22G29    30.27R
EASTON         MOSUNNY   77  57  50 E3        30.29F
CAMBRIDGE      MOSUNNY   77  52  41 NE3       30.24F
SALISBURY      PTSUNNY   74  60  61 NE12      30.24F
OCEAN CITY     SUNNY     73  56  54 E10G20    30.25S
WALLOPS ISLAND PTSUNNY   74  58  57 E7        30.25S
ACCOMACK*      CLOUDY    72  55  56 E3        30.24S
$$

NCZ012>017-030>032-191900-
EASTERN NORTH CAROLINA

CITY           SKY/WX    TMP DP  RH WIND       PRES   REMARKS
ELIZABETH CITY SUNNY     78  58  49 NE9       30.21F
AHOSKIE*       MOSUNNY   75  60  58 NE7       30.21S
EDENTON*       MOSUNNY   77  61  56 E9G16     30.20S
CURRITUCK*     SUNNY     77  55  45 NE7       30.23S
KILL DEVIL HLS SUNNY     77  58  51 NE8       30.20S
MANTEO         SUNNY     77  59  54 NE15      30.21S
CAPE HATTERAS  PTSUNNY   76  64  66 NE10G20   30.17F
TARBORO*       CLOUDY    79  60  52 E8        30.19F
GOLDSBORO      MOSUNNY   81  61  49 E14       30.15S
WASHINGTON     SUNNY     78  59  51 E13       30.18S
GREENVILLE     MOSUNNY   81  61  50 NE10G18   30.19S
NEW BERN       MOSUNNY   80  57  45 E13G22    30.18S
WILMINGTON     PTSUNNY   79  66  64 NE16G29   30.13S
$$

VAZ048-191900-
ELSEWHERE

CITY           SKY/WX    TMP DP  RH WIND       PRES   REMARKS
HARRISBURG PA  MOSUNNY   72  50  45 SE6       30.28F
BALTIMORE      PTSUNNY   70  56  61 SE7       30.27F
ANNAPOLIS      MOSUNNY   72  58  61 VRB3      30.26F
ANDREWS AFB    MOSUNNY   73  55  53 E5        30.26F
WILMINGTON DE  MOSUNNY   68  55  63 NE10      30.31F
PHILADELPHIA   PTSUNNY   70  52  52 E8        30.31F
WILDWOOD NJ*   CLOUDY    70  55  60 NE14G26   30.29S
ATLANTIC CITY  CLOUDY    67  56  67 NE15      30.30S
HENDERSON NC   CLOUDY    72  60  66 NE8       30.21S
GREENSBORO     PTSUNNY   73  59  61 E8        30.19F
ROCKY MOUNT    MOSUNNY   79  59  50 E8        30.18F
FAYETTEVILLE   PTSUNNY   80  59  48 NE7       30.15S
CHARLOTTE      CLOUDY    76  54  46 E8        30.17S
$$

VAZ100-191900-
MARINE

STATION/POSITION TIME  TEMP    WIND        PRES    WAVE   SWELL
                       AIR SEA DIR/SP/G            HT/PER HT/PER
                 (UTC) (F)     (DEG/KT/KT) (MB)    (FT/S) (FT/S)
44066 TX TWR #4  1800   66 72   60/ 19/ 23 1025.0R   6/ 7   2/ 9
CAPE MAY NJ      1800   70 76   50/  8/ 17 1024.7F
LEWES DE         1800   68 72   80/ 21/ 23 1024.5F
15NM E FENWICK I 1800   70 72              1024.0F   4/ 5
OCEAN-CITY-INLET 1800   70 72   80/  9/ 13 1024.1S
WACHAPREAGUE VA  1800   72 73  110/  6/  9 1024.0S
THOMAS POINT MD  1800   67 74   10/  6/  7 1025.7F
GOOSES REEF MD   1800   69      30/  6/  8 1025.1F
COVE POINT MD    1800   68     350/  8/  9 1024.4S
SOLOMONS ISLAND  1800      76                N/A
BISHOPS HEAD MD  1800   73 73   30/  3/  5 1023.7F
PINEY POINT MD   1800          100/  6/  7   N/A
POTOMAC MD       1800   71      80/  6/ 10 1023.7F
CAMBRIDGE MD     1800   74 74   50/  2/  5 1023.9F
LEWISETTA VA     1800   71 74  100/  8/  9 1023.9S
RAPPAHANNOCK LGT 1800           30/  6/  7 1024.4S
STINGRAY PT      1800   72      50/  6/  8   N/A
YORK RVR RNG VA  1800   74      90/  5/  7 1023.2F
YORKTOWN VA      1800   73 76   80/  7/  7 1023.4F
JAMESTOWN VA     1800   73     110/  6/ 10   N/A
DOMINION TERM VA 1800   75     100/  5/ 11 1023.6F
KIPTOPEKE VA     1800      79  110/  8/ 11   N/A
CHES BAY BRIDGE  1800   72 76   60/ 10/ 12 1023.1S
CAPE HENRY VA    1800   72      60/  9/ 11 1022.5F
CHESAPEAKE LGHT  1700   71      60/ 10/ 11 1024.5R
WILLOUBY STN VA  1800   72      90/ 10/ 12 1022.3F
S CRANEY ISL VA  1800           20/  9/ 12 1022.9F
CAPE HENRY BUOY  1700      76                N/A     3/11   2/11
1ST LANDING BUOY 1800   73      90/ 10/ 12 1023.3F
CAPE CHARLES BUO 1800      75                N/A     3/10   2/10
OFFSHORE WE BUOY 1800      75                N/A     3/ 9   3/ 9
64NM E OF VA BCH 1800   73 76   50/ 12/ 16 1022.8F   4/ 9   3/ 9
DUCK PIER NC     1800   74 75   80/ 12/ 14 1022.5S
44100 DUCK FRF   1800      75                N/A     4/ 5   2/11
44056 DUCK FRF   1800                        N/A     4/ 7   2/11
OREGON INLET NC  1800   75 73   40/ 13/ 17 1022.4S
HATTERAS NC      1800   75 75   40/ 12/ 18 1022.1R
DIAMOND SHLS NC  1800   78      50/ 17/ 21 1020.9S   6/ 7   2/ 9
CAPE LOOKOUT NC  1700   76      60/ 20/ 22 1020.8R
$$


USA.gov is the U.S. government's official web portal to all federal, state and local government web resources and services.